User: anonymous   Login
Location: Unspecified
(0.0000°N, 0.0000°E)
Time: 23:19:44
(UTC+00:00)
Language:

CUBESAT XI-V - Orbit

View from above orbital plane
View from above orbital plane
View from above satellite
View from above satellite

Ground track
Ground track

The orbit data is extracted from the following two-line orbital elements,

1 28895U 05043F   18050.40841685 +.00000146 +00000-0 +36783-4 0  9996
2 28895 097.8906 206.7530 0018152 082.8808 277.4459 14.63510033656648
Epoch (UTC): 19 February 2018 09:48:07
Eccentricity: 0.0018152
inclination: 97.8906°
perigee height: 669 km
apogee height: 694 km
right ascension of ascending node: 206.7530°
argument of perigee: 82.8808°
revolutions per day: 14.63510033
mean anomaly at epoch: 277.4459°
orbit number at epoch: 65664

The dashed part of the orbit path shows where the satellite is in the earth's shadow,  

DLR